Regional Weather Roundup
Issued by NWS

Home | Current Version | Previous Version | Graphics & Text | Print | Product List | Glossary On
Versions: 1 2 3 4 5 6 7 8 9 10 11 12 13 14 15 16 17 18 19 20 21 22 23 24 25 26 27 28 29 30 31 32 33 34 35 36 37 38 39 40 41 42 43 44 45 46 47 48 49 50
394
ASUS44 KJAN 280810
RWRMS

MISSISSIPPI HOURLY WEATHER ROUNDUP
NATIONAL WEATHER SERVICE JACKSON MS
300 AM CDT SAT MAR 28 2015

NOTE: "FAIR: INDICATES FEW OR NO CLOUDS BELOW 12,000 FEET WITH NO
SIGNIFICANT WEATHER AND/OR OBSTRUCTIONS TO VISIBILITY.

MSZ001>002-007>008-010>013-018>021-025>028-034>036-280900-
NORTHWEST MISSISSIPPI

CITY           SKY/WX    TMP DP  RH WIND       PRES   REMARKS
CLARKSDALE     CLOUDY    39  30  70 NE8       30.21S WCI  34
CLEVELAND      PTSUNNY   41  37  86 E5        30.19S
GREENWOOD      CLOUDY    42  31  64 NE9       30.19S
GREENVILLE     PTCLDY    41  37  86 CALM      30.19S
OLIVE BRANCH   PTCLDY    34  27  75 NE5       30.19S WCI  30
OXFORD         MOCLDY    32  27  80 CALM      30.20S
TUNICA         PTSUNNY   37  28  70 E6        30.21F WCI  33
$$

MSZ003>006-009-014>017-022>024-029>033-037>039-280900-
NORTHEAST MISSISSIPPI

CITY           SKY/WX    TMP DP  RH WIND       PRES   REMARKS
COLUMBUS AFB   CLOUDY    38  29  68 N7        30.17F WCI  33
CORINTH        FAIR      34  25  69 CALM      30.17F
GOLDN TRIANGLE CLOUDY    37  32  81 N5        30.17F WCI  34
STARKVILLE     CLOUDY    37  32  81 N3        30.18S
TUPELO         CLOUDY    36  28  73 NE7       30.18F WCI  30
$$

MSZ040-058-280900-
CENTRAL MISSISSIPPI

CITY           SKY/WX    TMP DP  RH WIND       PRES   REMARKS
JACKSON INTL   PTCLDY    39  36  89 CALM      30.18F
JACKSON HAWKNS PTCLDY    43  34  70 CALM      30.18S
MERIDIAN KEY   CLOUDY    39  36  89 CALM      30.17F
MERIDIAN NAS   NOT AVBL
RAYMOND        FAIR      39  36  87 CALM      30.19R
VICKSBURG      CLEAR     41  36  82 CALM      30.21R
$$

MSZ059>079-280900-
SOUTH MISSISSIPPI

CITY           SKY/WX    TMP DP  RH WIND       PRES   REMARKS
BROOKHAVEN       N/A     39  39 100 CALM      30.20F
HATTIESBURG    CLEAR     43  38  82 CALM      30.19S
MCCOMB         CLEAR     45  38  76 N5        30.18S
NATCHEZ        CLEAR     41  37  87 CALM      30.19F
PINE BELT      CLEAR     39  34  81 CALM      30.18F
$$

MSZ080>082-280900-
COASTAL MISSISSIPPI

CITY           SKY/WX    TMP DP  RH WIND       PRES   REMARKS
BILOXI         CLEAR     49  38  65 N10       30.15F
PASCAGOULA     CLEAR     44  38  79 CALM      30.16S
GULFPORT       CLEAR     49  35  58 N6        30.16F
$$



USA.gov is the U.S. government's official web portal to all federal, state and local government web resources and services.